This is the latest recevied weather packets stored in our database for station/object WX6HNX-6. If no packets are shown the sender has not sent any weather packets the latest 1 day(s).
| Time | Temp. | Humidity | Pressure | Rain* | Wind** | Luminosity | Snow |
|---|---|---|---|---|---|---|---|
| 1836274592 | 22.78° C | 80% | 1012.7 hPa | 0 mm | 0 m/s | - | - |
| 1836274441 | 22.78° C | 79% | 1012.8 hPa | 0 mm | 0 m/s | - | - |
| 1836274292 | 22.78° C | 80% | 1012.6 hPa | 0 mm | 0 m/s | - | - |
| 1836274141 | 22.78° C | 79% | 1012.7 hPa | 0 mm | 0 m/s | - | - |
| 1836273991 | 22.78° C | 79% | 1012.6 hPa | 0 mm | 0 m/s | - | - |
| 1778102855 | 26.11° C | 43% | 1018 hPa | 0 mm | 0.89 m/s, 298° | - | - |
| 1778102556 | 25.56° C | 44% | 1018.1 hPa | 0 mm | 0.89 m/s, 329° | - | - |
| 1778102255 | 25.56° C | 45% | 1018.1 hPa | 0 mm | 2.68 m/s, 341° | - | - |
| 1778101956 | 25° C | 45% | 1018.2 hPa | 0 mm | 0.89 m/s, 13° | - | - |
| 1778101657 | 24.44° C | 46% | 1018.2 hPa | 0 mm | 0.89 m/s, 31° | - | - |
| 1778101355 | 24.44° C | 50% | 1018.2 hPa | 0 mm | 0 m/s | - | - |
| 1778101055 | 24.44° C | 45% | 1018.2 hPa | 0 mm | 0.45 m/s, 44° | - | - |
| 1778100755 | 24.44° C | 45% | 1018.2 hPa | 0 mm | 0 m/s | - | - |
| 1778100455 | 25° C | 44% | 1018.4 hPa | 0 mm | 1.79 m/s, 23° | - | - |
| 1778100157 | 25° C | 44% | 1018.4 hPa | 0 mm | 1.79 m/s, 305° | - | - |
| 1778099855 | 25° C | 44% | 1018.5 hPa | 0 mm | 1.34 m/s, 340° | - | - |
| 1778099555 | 25° C | 45% | 1018.5 hPa | 0 mm | 2.68 m/s, 351° | - | - |
| 1778099255 | 25° C | 45% | 1018.6 hPa | 0 mm | 0.89 m/s, 29° | - | - |
| 1778098955 | 25° C | 45% | 1018.6 hPa | 0 mm | 0.89 m/s, 15° | - | - |
| 1778098655 | 25° C | 45% | 1018.7 hPa | 0 mm | 2.68 m/s, 324° | - | - |
| 1778098356 | 24.44° C | 46% | 1018.7 hPa | 0 mm | 2.24 m/s, 279° | - | - |
| 1778098055 | 23.89° C | 49% | 1018.8 hPa | 0 mm | 0.45 m/s, 355° | - | - |
| 1778097755 | 23.33° C | 50% | 1018.9 hPa | 0 mm | 1.34 m/s, 2° | - | - |
| 1778097455 | 22.78° C | 53% | 1019 hPa | 0 mm | 0.45 m/s, 300° | - | - |
| 1778097155 | 22.78° C | 50% | 1019 hPa | 0 mm | 0 m/s | - | - |
* Rain latest hour (hover to see other rain measurements)
** Current wind speed in m/s (hover to see current wind gust speed)